Regional Weather Roundup
Issued by NWS

Home | Current Version | Previous Version | Text Only | Print | Product List | Glossary On
Versions: 1 2 3 4 5 6 7 8 9 10 11 12 13 14 15 16 17 18 19 20 21 22 23 24 25 26 27 28 29 30 31 32 33 34 35 36 37 38 39 40 41 42 43 44 45 46 47 48 49 50
000
ASUS43 KTOP 240608
RWRKS

WEATHER ROUNDUP FOR KANSAS
NATIONAL WEATHER SERVICE GOODLAND KS
100 AM CDT TUE MAY 24 2016

NOTE:  "FAIR" INDICATES FEW OR NO CLOUDS BELOW 12,000 FEET WITH NO
SIGNIFICANT WEATHER AND/OR OBSTRUCTIONS TO VISIBILITY.

KSZ001>006-013>018-027>032-041>047-240700-
NORTHWEST KANSAS

CITY           SKY/WX    TMP DP  RH WIND       PRES   REMARKS
GOODLAND       PTCLDY    55  49  80 N6        29.86R
6HR MIN TEMP:  54; 6HR MAX TEMP:  75;

HAYS           CLOUDY    70  61  73 E6        29.78R
HILL CITY      TSTM      65  63  93 W6        29.80R FOG
6HR MIN TEMP:  64; 6HR MAX TEMP:  78; 6HR PCP:  0.22;

RUSSELL        CLOUDY    68  65  90 SE10      29.76S
6HR MIN TEMP:  68; 6HR MAX TEMP:  78;

$$

KSZ061>065-074>080-084>089-240700-
SOUTHWEST KANSAS

CITY           SKY/WX    TMP DP  RH WIND       PRES   REMARKS
DODGE CITY     PTCLDY    68  67  96 S23G30    29.79F
6HR MIN TEMP:  67; 6HR MAX TEMP:  78;

ELKHART          N/A     65  61  87 S13         N/A
GARDEN CITY    PTCLDY    68  66  93 S17G28    29.79S
6HR MIN TEMP:  68; 6HR MAX TEMP:  83; 6HR PCP: TRACE;

GREAT BEND     CLOUDY    70  63  78 S21       29.78S
LIBERAL        MOCLDY    72  64  78 S21G29    29.81S
PRATT          CLOUDY    67  65  91 S16G22    29.81F
6HR MIN TEMP:  67; 6HR MAX TEMP:  74;

$$

KSZ066>073-081>083-090>101-240700-
SOUTHEAST KANSAS

CITY           SKY/WX    TMP DP  RH WIND       PRES   REMARKS
CHANUTE        CLOUDY    66  62  87 S8        29.90S
6HR MIN TEMP:  63; 6HR MAX TEMP:  72;

COFFEYVILLE    CLOUDY    66  63  90 SE7       29.90F
6HR MIN TEMP:  65; 6HR MAX TEMP:  69;

HUTCHINSON     CLOUDY    70  66  87 SE15      29.80F
6HR MIN TEMP:  69; 6HR MAX TEMP:  73;

MEDICINE LODGE   N/A     72  67  84 S13G24    29.81S
NEWTON         CLOUDY    66  61  82 S14       29.85F
PARSONS        CLOUDY    67  64  90 S5        29.91S
6HR MIN TEMP:  65; 6HR MAX TEMP:  68;

WICHITA INTL   CLOUDY    69  65  86 SE15      29.81F
6HR MIN TEMP:  69; 6HR MAX TEMP:  73;

WICHITA JABRA  CLOUDY    67  65  93 S13       29.83F
6HR MIN TEMP:  67; 6HR MAX TEMP:  71;

WICHITA MCCONL CLOUDY    68  64  88 S14       29.82F
WINFIELD       CLOUDY    68  65  90 SE13      29.85F
6HR MIN TEMP:  67; 6HR MAX TEMP:  72;

$$

KSZ007>012-019>026-033>040-048>060-102>105-240700-
NORTHEAST KANSAS

CITY           SKY/WX    TMP DP  RH WIND       PRES   REMARKS
CONCORDIA      CLOUDY    67  62  84 S16       29.83S
6HR MIN TEMP:  67; 6HR MAX TEMP:  74;

EMPORIA        CLOUDY    64  61  90 SE10      29.88F
6HR MIN TEMP:  64; 6HR MAX TEMP:  71;

LAWRENCE       PTCLDY    63  61  93 E9        29.89F
MANHATTAN      MOCLDY    68  61  78 S6        29.85F
6HR MIN TEMP:  67; 6HR MAX TEMP:  74;

MARYSVILLE     CLOUDY    64  61  88 S9        29.84F
OLATHE IND     CLEAR     62  61  96 S8        29.92R
6HR MIN TEMP:  61; 6HR MAX TEMP:  69;

OLATHE EXE     MOCLDY    61  59  93 S3        29.92R
6HR MIN TEMP:  60; 6HR MAX TEMP:  69;

SALINA         CLOUDY    69  65  86 SE12      29.80F
6HR MIN TEMP:  69; 6HR MAX TEMP:  74;

TOPEKA BILLARD PTCLDY    65  61  87 SE6       29.87F
6HR MIN TEMP:  64; 6HR MAX TEMP:  72;

TOPEKA FORBES  PTCLDY    65  62  90 SE9       29.86F
6HR MIN TEMP:  64; 6HR MAX TEMP:  72;

$$



USA.gov is the U.S. government's official web portal to all federal, state and local government web resources and services.